Crookston, MN

8:30 PM CDT on June 25, 2017 (GMT -0500)
Crookston Municipal-Kirkwood

Weather History for KCKN - May, 2013

Change the Weather History Date:

Monday, May 20, 2013

  Actual Average Record
Temperature  
Mean Temperature 52 °F -  
Max Temperature 53 °F 62 °F 80 °F (2005)
Min Temperature 51 °F 40 °F 28 °F (1997)
Degree Days  
Heating Degree Days 13    
Growing Degree Days 2 (Base 50)    
Moisture  
Dew Point 53 °F    
Average Humidity 99    
Maximum Humidity 100    
Minimum Humidity 94    
Precipitation  
Precipitation 0.90 in - - ()
Sea Level Pressure  
Sea Level Pressure 29.57 in    
Wind  
Wind Speed 19 mph (East)    
Max Wind Speed 25 mph    
Max Gust Speed 34 mph    
Visibility 8 miles    
Events Rain    
Averages and records for this station are not official NWS values.
T = Trace of Precipitation, MM = Missing Value Source: NWS Daily Summary

Daily Weather History Graph

Daily Weather History Graph

Search for Another Location

Airport or City:

Trip Planner

Search our weather history database for the weather conditions in past years. The results will help you decide how hot, cold, wet, or windy it might be!

Date:

Astronomy

May. 20, 2013 Rise Set
Actual Time 5:42 AM CDT 9:04 PM CDT
Civil Twilight 5:04 AM CDT 9:42 PM CDT
Nautical Twilight 4:14 AM CDT 10:32 PM CDT
Astronomical Twilight 3:10 AM CDT 11:38 PM CDT
Moon 3:53 PM CDT (5/20) 3:00 AM CDT (5/20)
Length of Visible Light 16h 38m
Length of Day
15h 22m
Waxing Gibbous, 75% of the Moon is Illuminated
May 20
Waxing Gibbous
May 24
Full
May 31
Last Quarter
Jun 8
New
Jun 16
First Quarter

Hourly Weather History & Observations

Time (CDT) Temp. Dew Point Humidity Pressure Visibility Wind Dir Wind Speed Gust Speed Precip Events Conditions
12:14 AM 53.6 °F 53.6 °F 100% 29.65 in 10.0 mi East 20.7 mph 26.5 mph N/A   Light Drizzle
12:35 AM 53.6 °F 53.6 °F 100% 29.64 in 10.0 mi East 18.4 mph 23.0 mph N/A   Light Drizzle
12:54 AM 53.6 °F 53.6 °F 100% 29.64 in 10.0 mi East 17.3 mph 26.5 mph N/A   Light Drizzle
1:15 AM 53.6 °F 53.6 °F 100% 29.64 in 10.0 mi East 20.7 mph 25.3 mph 0.01 in   Drizzle
1:35 AM 53.6 °F 53.6 °F 100% 29.64 in 10.0 mi East 17.3 mph 26.5 mph 0.01 in   Drizzle
1:54 AM 53.6 °F 53.6 °F 100% 29.64 in 10.0 mi East 19.6 mph 26.5 mph 0.01 in Rain Light Rain
2:15 AM 53.6 °F 53.6 °F 100% 29.64 in 10.0 mi East 18.4 mph 27.6 mph 0.07 in Rain Rain
2:34 AM 53.6 °F 53.6 °F 100% 29.63 in 10.0 mi East 17.3 mph 28.8 mph 0.13 in Rain Rain
3:15 AM 53.6 °F 51.8 °F 94% 29.60 in 10.0 mi East 13.8 mph 26.5 mph 0.10 in Rain Light Rain
3:34 AM 53.6 °F 51.8 °F 94% 29.60 in 10.0 mi East 16.1 mph 24.2 mph 0.12 in Rain Light Rain
3:54 AM 53.6 °F 51.8 °F 94% 29.60 in 10.0 mi ENE 12.7 mph 19.6 mph N/A Rain Rain
4:15 AM 53.6 °F 51.8 °F 94% 29.59 in 7.0 mi ENE 13.8 mph 19.6 mph 0.01 in Rain Light Rain
4:34 AM 53.6 °F 51.8 °F 94% 29.59 in 4.0 mi ENE 13.8 mph 21.9 mph 0.02 in   Drizzle
4:54 AM 53.6 °F 53.6 °F 100% 29.58 in 10.0 mi ENE 15.0 mph 20.7 mph N/A   Overcast
5:15 AM 53.6 °F 53.6 °F 100% 29.56 in 10.0 mi ENE 12.7 mph 24.2 mph N/A Rain Light Rain
5:34 AM 53.6 °F 53.6 °F 100% 29.56 in 10.0 mi ENE 15.0 mph 19.6 mph N/A   Light Drizzle
5:54 AM 53.6 °F 53.6 °F 100% 29.56 in 7.0 mi ENE 13.8 mph 20.7 mph N/A   Light Drizzle
6:15 AM 53.6 °F 53.6 °F 100% 29.55 in 7.0 mi ENE 12.7 mph 21.9 mph 0.02 in   Heavy Drizzle
6:34 AM 53.6 °F 53.6 °F 100% 29.55 in 7.0 mi ENE 13.8 mph 23.0 mph 0.10 in Rain Rain
6:54 AM 53.6 °F 53.6 °F 100% 29.55 in 10.0 mi East 17.3 mph 21.9 mph 0.01 in Rain Light Rain
7:15 AM 53.6 °F 53.6 °F 100% 29.54 in 7.0 mi East 20.7 mph 31.1 mph 0.01 in   Light Drizzle
7:34 AM 53.6 °F 53.6 °F 100% 29.54 in 7.0 mi East 20.7 mph 28.8 mph 0.01 in   Overcast
7:54 AM 53.6 °F 53.6 °F 100% 29.54 in 4.0 mi East 18.4 mph 32.2 mph N/A Rain Heavy Rain
8:15 AM 53.6 °F 53.6 °F 100% 29.54 in 4.0 mi East 20.7 mph 29.9 mph 0.02 in   Drizzle
8:34 AM 53.6 °F 53.6 °F 100% 29.54 in 7.0 mi East 18.4 mph 27.6 mph 0.03 in   Drizzle
9:15 AM 53.6 °F 53.6 °F 100% 29.54 in 10.0 mi East 23.0 mph 32.2 mph 0.02 in Rain Light Rain
9:34 AM 53.6 °F 53.6 °F 100% 29.54 in 10.0 mi East 20.7 mph 29.9 mph 0.05 in Rain Light Rain
9:54 AM 53.6 °F 53.6 °F 100% 29.54 in 10.0 mi East 24.2 mph 33.4 mph 0.01 in Rain Light Rain
10:34 AM 53.6 °F 53.6 °F 100% 29.53 in 10.0 mi East 21.9 mph 27.6 mph 0.06 in Rain Light Rain
10:54 AM 53.6 °F 53.6 °F 100% 29.53 in 10.0 mi East 21.9 mph 32.2 mph N/A Rain Light Rain
11:15 AM 53.6 °F 53.6 °F 100% 29.53 in 7.0 mi East 21.9 mph 34.5 mph 0.02 in Rain Light Rain
11:34 AM 53.6 °F 53.6 °F 100% 29.53 in 7.0 mi East 25.3 mph 32.2 mph 0.03 in Rain Light Rain
11:54 AM 53.6 °F 53.6 °F 100% 29.52 in 10.0 mi East 25.3 mph 33.4 mph N/A Rain Rain
12:15 PM 53.6 °F 53.6 °F 100% 29.52 in 7.0 mi East 20.7 mph 31.1 mph 0.01 in Rain Rain
12:34 PM 53.6 °F 53.6 °F 100% 29.52 in 10.0 mi East 21.9 mph 33.4 mph 0.03 in Rain Light Rain
12:54 PM 53.6 °F 53.6 °F 100% 29.52 in 10.0 mi East 21.9 mph 32.2 mph 0.01 in Rain Light Rain
1:14 PM 53.6 °F 51.8 °F 94% 29.52 in 10.0 mi East 21.9 mph 32.2 mph 0.03 in Rain Light Rain
1:55 PM 53.6 °F 51.8 °F 94% 29.52 in 7.0 mi East 19.6 mph 29.9 mph 0.01 in Rain Light Rain
2:14 PM 53.6 °F 51.8 °F 94% 29.52 in 10.0 mi East 19.6 mph 29.9 mph 0.03 in Rain Light Rain
2:34 PM 51.8 °F 51.8 °F 100% 29.53 in 10.0 mi East 23.0 mph 33.4 mph 0.07 in Rain Light Rain
2:55 PM 51.8 °F 51.8 °F 100% 29.53 in 10.0 mi East 19.6 mph 28.8 mph 0.02 in Rain Light Rain
3:14 PM 51.8 °F 51.8 °F 100% 29.53 in 7.0 mi East 19.6 mph 27.6 mph 0.04 in Rain Rain
3:34 PM 51.8 °F 51.8 °F 100% 29.53 in 7.0 mi East 20.7 mph 28.8 mph 0.04 in Rain Light Rain
3:54 PM 53.6 °F 51.8 °F 94% 29.53 in 4.0 mi East 23.0 mph 31.1 mph N/A Rain Light Rain
4:14 PM 53.6 °F 51.8 °F 94% 29.54 in 5.0 mi East 20.7 mph 27.6 mph 0.01 in Rain Light Rain
4:35 PM 53.6 °F 53.6 °F 100% 29.54 in 4.0 mi East 20.7 mph 29.9 mph 0.03 in Rain Light Rain
4:54 PM 53.6 °F 53.6 °F 100% 29.54 in 4.0 mi East 20.7 mph 28.8 mph 0.01 in Rain Light Rain
5:14 PM 53.6 °F 53.6 °F 100% 29.54 in 5.0 mi East 20.7 mph 27.6 mph 0.03 in Rain Light Rain
5:35 PM 53.6 °F 53.6 °F 100% 29.55 in 10.0 mi East 19.6 mph 26.5 mph 0.05 in Rain Light Rain
5:54 PM 53.6 °F 53.6 °F 100% 29.55 in 10.0 mi East 19.6 mph 31.1 mph 0.01 in Rain Light Rain
6:15 PM 53.6 °F 51.8 °F 94% 29.55 in 10.0 mi East 23.0 mph 32.2 mph 0.03 in Rain Rain
6:34 PM 53.6 °F 51.8 °F 94% 29.56 in 10.0 mi East 19.6 mph 28.8 mph 0.03 in   Overcast
6:54 PM 53.6 °F 51.8 °F 94% 29.57 in 10.0 mi East 18.4 mph 27.6 mph N/A   Overcast
7:15 PM 51.8 °F 51.8 °F 100% 29.57 in 2.5 mi East 18.4 mph 26.5 mph 0.05 in Rain Heavy Rain
7:34 PM 51.8 °F 51.8 °F 100% 29.58 in 10.0 mi East 19.6 mph 25.3 mph 0.06 in   Overcast
7:54 PM 51.8 °F 51.8 °F 100% 29.58 in 7.0 mi East 23.0 mph 29.9 mph N/A   Overcast
8:15 PM 51.8 °F 51.8 °F 100% 29.59 in 10.0 mi East 21.9 mph 29.9 mph N/A Rain Rain
8:34 PM 51.8 °F 51.8 °F 100% 29.60 in 7.0 mi East 24.2 mph 31.1 mph N/A   Drizzle
9:15 PM 51.8 °F 51.8 °F 100% 29.62 in 10.0 mi East 23.0 mph 29.9 mph N/A   Overcast
9:34 PM 51.8 °F 51.8 °F 100% 29.62 in 10.0 mi East 18.4 mph 27.6 mph N/A   Overcast
9:54 PM 51.8 °F 51.8 °F 100% 29.62 in 10.0 mi East 25.3 mph 33.4 mph N/A   Overcast
10:15 PM 51.8 °F 51.8 °F 100% 29.63 in 10.0 mi East 23.0 mph 33.4 mph N/A   Overcast
10:34 PM 51.8 °F 51.8 °F 100% 29.63 in 10.0 mi East 24.2 mph 31.1 mph N/A   Overcast
10:54 PM 51.8 °F 50.0 °F 94% 29.64 in 10.0 mi East 25.3 mph 33.4 mph N/A   Overcast
11:15 PM 51.8 °F 50.0 °F 94% 29.65 in 10.0 mi East 25.3 mph 29.9 mph N/A   Overcast
11:34 PM 51.8 °F 51.8 °F 100% 29.65 in 10.0 mi East 25.3 mph 34.5 mph N/A   Overcast
11:54 PM 51.8 °F 51.8 °F 100% 29.65 in 10.0 mi East 16.1 mph 25.3 mph N/A   Overcast